Wetterdaten: Samstag, 04.05.2013
Datum Zeit Temperatur Luftfeuchte Luftdruck Regen Wind Richtung Richtung Taupunkt Windchill Windben
04.05.2013 00:00 7,3 C 96 % 1017,6 hPa 0,0 l/m 0,0 km/h (0 Bft) N 360 6,7 C 7,3 C 0,0 km/h (0 Bft)
04.05.2013 00:05 7,3 C 96 % 1017,4 hPa 0,0 l/m 0,2 km/h (0 Bft) NO 45 6,7 C 7,3 C 1,9 km/h (1 Bft)
04.05.2013 00:10 7,3 C 96 % 1017,4 hPa 0,0 l/m 0,2 km/h (0 Bft) S-SW 202 6,7 C 7,2 C 1,6 km/h (1 Bft)
04.05.2013 00:15 7,2 C 96 % 1017,4 hPa 0,0 l/m 0,2 km/h (0 Bft) S-SO 157 6,6 C 7,2 C 0,0 km/h (0 Bft)
04.05.2013 00:20 7,1 C 96 % 1017,4 hPa 0,0 l/m 1,0 km/h (0 Bft) O 90 6,5 C 7,2 C 1,6 km/h (1 Bft)
04.05.2013 00:25 7,1 C 96 % 1017,8 hPa 0,0 l/m 1,0 km/h (0 Bft) S 180 6,5 C 7,1 C 3,2 km/h (1 Bft)
04.05.2013 00:30 7,1 C 96 % 1017,8 hPa 0,0 l/m 0,5 km/h (0 Bft) O-SO 112 6,5 C 6,9 C 0,0 km/h (0 Bft)
04.05.2013 00:35 7,1 C 96 % 1017,8 hPa 0,0 l/m 0,5 km/h (0 Bft) O-NO 67 6,5 C 6,9 C 0,0 km/h (0 Bft)
04.05.2013 00:40 7,0 C 96 % 1017,8 hPa 0,0 l/m 0,2 km/h (0 Bft) S-SW 202 6,4 C 6,8 C 0,0 km/h (0 Bft)
04.05.2013 00:45 7,0 C 96 % 1017,9 hPa 0,0 l/m 0,2 km/h (0 Bft) SO 135 6,4 C 6,8 C 2,1 km/h (1 Bft)
04.05.2013 00:50 7,1 C 96 % 1017,9 hPa 0,0 l/m 0,5 km/h (0 Bft) SO 135 6,5 C 6,8 C 1,8 km/h (1 Bft)
04.05.2013 00:55 7,1 C 96 % 1017,9 hPa 0,0 l/m 1,3 km/h (1 Bft) SO 135 6,5 C 7,0 C 3,4 km/h (1 Bft)
04.05.2013 01:00 7,1 C 96 % 1017,9 hPa 0,0 l/m 1,8 km/h (1 Bft) O 90 6,5 C 7,0 C 0,0 km/h (0 Bft)
04.05.2013 01:05 7,0 C 96 % 1017,8 hPa 0,0 l/m 1,8 km/h (1 Bft) SO 135 6,4 C 7,0 C 4,0 km/h (1 Bft)
04.05.2013 01:10 6,9 C 96 % 1017,8 hPa 0,0 l/m 0,6 km/h (0 Bft) S 180 6,3 C 6,8 C 0,0 km/h (0 Bft)
04.05.2013 01:15 6,8 C 96 % 1017,8 hPa 0,0 l/m 0,3 km/h (0 Bft) W 270 6,2 C 6,7 C 0,0 km/h (0 Bft)
04.05.2013 01:20 6,5 C 96 % 1017,8 hPa 0,0 l/m 0,5 km/h (0 Bft) SO 135 5,9 C 6,5 C 2,7 km/h (1 Bft)
04.05.2013 01:25 6,6 C 96 % 1017,7 hPa 0,0 l/m 1,0 km/h (0 Bft) S 180 6,0 C 6,5 C 2,1 km/h (1 Bft)
04.05.2013 01:30 6,7 C 96 % 1017,7 hPa 0,0 l/m 1,6 km/h (1 Bft) O-SO 112 6,1 C 6,5 C 0,0 km/h (0 Bft)
04.05.2013 01:35 6,6 C 96 % 1017,7 hPa 0,0 l/m 2,3 km/h (1 Bft) O 90 6,0 C 6,5 C 5,3 km/h (1 Bft)
04.05.2013 01:40 6,6 C 96 % 1017,7 hPa 0,0 l/m 2,7 km/h (1 Bft) O-NO 67 6,0 C 6,5 C 5,0 km/h (1 Bft)
04.05.2013 01:45 6,5 C 96 % 1017,6 hPa 0,0 l/m 3,4 km/h (1 Bft) NO 45 5,9 C 6,4 C 5,8 km/h (2 Bft)
04.05.2013 01:50 6,4 C 96 % 1017,6 hPa 0,0 l/m 2,1 km/h (1 Bft) S 180 5,8 C 6,4 C 1,6 km/h (1 Bft)
04.05.2013 01:55 6,3 C 96 % 1017,6 hPa 0,0 l/m 0,6 km/h (0 Bft) O 90 5,7 C 6,3 C 1,6 km/h (1 Bft)
04.05.2013 02:00 6,3 C 96 % 1017,6 hPa 0,0 l/m 1,6 km/h (1 Bft) NO 45 5,7 C 6,2 C 5,3 km/h (1 Bft)
04.05.2013 02:05 6,4 C 96 % 1017,7 hPa 0,0 l/m 2,7 km/h (1 Bft) NO 45 5,8 C 6,3 C 2,3 km/h (1 Bft)
04.05.2013 02:10 6,3 C 96 % 1017,7 hPa 0,0 l/m 2,1 km/h (1 Bft) S-SO 157 5,7 C 6,3 C 3,1 km/h (1 Bft)
04.05.2013 02:15 6,3 C 96 % 1017,7 hPa 0,0 l/m 0,8 km/h (0 Bft) W-NW 292 5,7 C 6,3 C 8,0 km/h (2 Bft)
04.05.2013 02:20 6,0 C 96 % 1017,7 hPa 0,0 l/m 0,6 km/h (0 Bft) S 180 5,4 C 6,0 C 0,0 km/h (0 Bft)
04.05.2013 02:25 6,0 C 96 % 1017,6 hPa 0,0 l/m 0,0 km/h (0 Bft) NO 45 5,4 C 5,9 C 0,0 km/h (0 Bft)
04.05.2013 02:30 5,9 C 97 % 1017,6 hPa 0,0 l/m 0,3 km/h (0 Bft) S 180 5,5 C 5,9 C 0,0 km/h (0 Bft)
04.05.2013 02:35 6,0 C 96 % 1017,6 hPa 0,0 l/m 0,3 km/h (0 Bft) S 180 5,4 C 5,9 C 0,0 km/h (0 Bft)
04.05.2013 02:40 5,9 C 97 % 1017,6 hPa 0,0 l/m 0,0 km/h (0 Bft) NO 45 5,5 C 5,8 C 0,0 km/h (0 Bft)
04.05.2013 02:45 5,8 C 97 % 1017,8 hPa 0,0 l/m 0,0 km/h (0 Bft) NO 45 5,4 C 5,7 C 0,0 km/h (0 Bft)
04.05.2013 02:50 5,8 C 97 % 1017,8 hPa 0,0 l/m 0,0 km/h (0 Bft) NO 45 5,4 C 5,6 C 0,0 km/h (0 Bft)
04.05.2013 02:55 5,8 C 97 % 1017,8 hPa 0,0 l/m 0,2 km/h (0 Bft) NO 45 5,4 C 5,6 C 3,2 km/h (1 Bft)
04.05.2013 03:00 6,0 C 96 % 1017,8 hPa 0,0 l/m 1,1 km/h (1 Bft) N-NO 22 5,4 C 5,7 C 2,1 km/h (1 Bft)
04.05.2013 03:05 6,1 C 96 % 1017,6 hPa 0,0 l/m 1,1 km/h (1 Bft) O-SO 112 5,5 C 5,9 C 0,0 km/h (0 Bft)
04.05.2013 03:10 6,3 C 96 % 1017,6 hPa 0,0 l/m 1,3 km/h (1 Bft) O-NO 67 5,7 C 6,0 C 0,0 km/h (0 Bft)
04.05.2013 03:15 6,4 C 96 % 1017,6 hPa 0,0 l/m 1,1 km/h (1 Bft) NO 45 5,8 C 6,2 C 0,0 km/h (0 Bft)
04.05.2013 03:20 6,5 C 96 % 1017,6 hPa 0,0 l/m 0,3 km/h (0 Bft) O 90 5,9 C 6,3 C 0,0 km/h (0 Bft)
04.05.2013 03:25 6,5 C 96 % 1017,7 hPa 0,0 l/m 0,3 km/h (0 Bft) N-NW 337 5,9 C 6,3 C 1,6 km/h (1 Bft)
04.05.2013 03:30 6,4 C 96 % 1017,7 hPa 0,0 l/m 0,5 km/h (0 Bft) N-NO 22 5,8 C 6,3 C 0,0 km/h (0 Bft)
04.05.2013 03:35 6,4 C 96 % 1017,7 hPa 0,0 l/m 0,8 km/h (0 Bft) O 90 5,8 C 6,3 C 3,2 km/h (1 Bft)
04.05.2013 03:40 6,5 C 96 % 1017,7 hPa 0,0 l/m 2,1 km/h (1 Bft) SO 135 5,9 C 6,4 C 2,1 km/h (1 Bft)
04.05.2013 03:45 6,5 C 96 % 1017,8 hPa 0,0 l/m 3,1 km/h (1 Bft) O 90 5,9 C 6,5 C 3,2 km/h (1 Bft)
04.05.2013 03:50 6,5 C 96 % 1017,8 hPa 0,0 l/m 2,6 km/h (1 Bft) O 90 5,9 C 6,5 C 2,6 km/h (1 Bft)
04.05.2013 03:55 6,6 C 96 % 1017,8 hPa 0,0 l/m 2,3 km/h (1 Bft) O-SO 112 6,0 C 6,5 C 3,7 km/h (1 Bft)
04.05.2013 04:00 6,6 C 96 % 1017,8 hPa 0,0 l/m 2,9 km/h (1 Bft) O-NO 67 6,0 C 6,6 C 3,7 km/h (1 Bft)
04.05.2013 04:05 6,6 C 96 % 1017,4 hPa 0,0 l/m 2,9 km/h (1 Bft) O-NO 67 6,0 C 6,6 C 3,4 km/h (1 Bft)
04.05.2013 04:10 6,6 C 96 % 1017,4 hPa 0,0 l/m 3,1 km/h (1 Bft) O 90 6,0 C 6,6 C 3,7 km/h (1 Bft)
04.05.2013 04:15 6,6 C 96 % 1017,4 hPa 0,0 l/m 3,4 km/h (1 Bft) NO 45 6,0 C 6,6 C 2,9 km/h (1 Bft)
04.05.2013 04:20 6,8 C 96 % 1017,4 hPa 0,0 l/m 3,4 km/h (1 Bft) O 90 6,2 C 6,7 C 3,9 km/h (1 Bft)
04.05.2013 04:25 6,7 C 96 % 1017,7 hPa 0,0 l/m 3,4 km/h (1 Bft) O 90 6,1 C 6,8 C 2,6 km/h (1 Bft)
04.05.2013 04:30 6,6 C 96 % 1017,7 hPa 0,0 l/m 3,4 km/h (1 Bft) O-SO 112 6,0 C 6,8 C 2,6 km/h (1 Bft)
04.05.2013 04:35 6,6 C 96 % 1017,7 hPa 0,0 l/m 3,2 km/h (1 Bft) NO 45 6,0 C 6,7 C 3,4 km/h (1 Bft)
04.05.2013 04:40 6,7 C 96 % 1017,7 hPa 0,0 l/m 3,1 km/h (1 Bft) O 90 6,1 C 6,8 C 3,1 km/h (1 Bft)
04.05.2013 04:45 6,7 C 96 % 1017,6 hPa 0,0 l/m 2,9 km/h (1 Bft) NO 45 6,1 C 6,8 C 3,9 km/h (1 Bft)
04.05.2013 04:50 6,8 C 96 % 1017,6 hPa 0,0 l/m 1,9 km/h (1 Bft) O-NO 67 6,2 C 6,8 C 1,8 km/h (1 Bft)
04.05.2013 04:55 6,9 C 96 % 1017,6 hPa 0,0 l/m 1,6 km/h (1 Bft) O-SO 112 6,3 C 6,8 C 1,9 km/h (1 Bft)
04.05.2013 05:00 6,9 C 96 % 1017,6 hPa 0,0 l/m 1,9 km/h (1 Bft) O 90 6,3 C 6,9 C 3,2 km/h (1 Bft)
04.05.2013 05:05 6,9 C 96 % 1017,7 hPa 0,0 l/m 2,3 km/h (1 Bft) O-SO 112 6,3 C 7,0 C 4,7 km/h (1 Bft)
04.05.2013 05:10 7,0 C 96 % 1017,7 hPa 0,0 l/m 2,1 km/h (1 Bft) O 90 6,4 C 7,1 C 2,3 km/h (1 Bft)
04.05.2013 05:15 7,0 C 96 % 1017,7 hPa 0,0 l/m 1,9 km/h (1 Bft) O-NO 67 6,4 C 7,1 C 0,0 km/h (0 Bft)
04.05.2013 05:20 7,0 C 96 % 1017,7 hPa 0,0 l/m 1,9 km/h (1 Bft) NO 45 6,4 C 7,2 C 1,9 km/h (1 Bft)
04.05.2013 05:25 6,9 C 96 % 1017,8 hPa 0,0 l/m 1,6 km/h (1 Bft) O 90 6,3 C 7,1 C 2,4 km/h (1 Bft)
04.05.2013 05:30 6,9 C 96 % 1017,8 hPa 0,0 l/m 1,1 km/h (1 Bft) O 90 6,3 C 7,0 C 0,0 km/h (0 Bft)
04.05.2013 05:35 6,8 C 96 % 1017,8 hPa 0,0 l/m 1,1 km/h (1 Bft) SO 135 6,2 C 6,9 C 2,4 km/h (1 Bft)
04.05.2013 05:40 6,7 C 96 % 1017,8 hPa 0,0 l/m 0,6 km/h (0 Bft) O-NO 67 6,1 C 6,8 C 0,0 km/h (0 Bft)
04.05.2013 05:45 6,7 C 96 % 1017,8 hPa 0,0 l/m 0,5 km/h (0 Bft) NO 45 6,1 C 6,8 C 1,6 km/h (1 Bft)
04.05.2013 05:50 6,6 C 96 % 1017,8 hPa 0,0 l/m 0,5 km/h (0 Bft) O-SO 112 6,0 C 6,6 C 0,0 km/h (0 Bft)
04.05.2013 05:55 6,6 C 96 % 1017,8 hPa 0,0 l/m 0,6 km/h (0 Bft) S-SO 157 6,0 C 6,6 C 2,1 km/h (1 Bft)
04.05.2013 06:00 6,5 C 96 % 1017,8 hPa 0,0 l/m 0,6 km/h (0 Bft) S 180 5,9 C 6,6 C 1,8 km/h (1 Bft)
04.05.2013 06:05 6,5 C 96 % 1017,8 hPa 0,0 l/m 0,8 km/h (0 Bft) S-SO 157 5,9 C 6,6 C 0,0 km/h (0 Bft)
04.05.2013 06:10 6,5 C 96 % 1017,8 hPa 0,0 l/m 1,0 km/h (0 Bft) S-SO 157 5,9 C 6,5 C 3,9 km/h (1 Bft)
04.05.2013 06:15 6,6 C 96 % 1017,8 hPa 0,0 l/m 1,1 km/h (1 Bft) NO 45 6,0 C 6,5 C 2,3 km/h (1 Bft)
04.05.2013 06:20 6,5 C 96 % 1017,8 hPa 0,0 l/m 1,1 km/h (1 Bft) O-NO 67 5,9 C 6,5 C 1,8 km/h (1 Bft)
04.05.2013 06:25 6,5 C 96 % 1018,4 hPa 0,0 l/m 0,8 km/h (0 Bft) S 180 5,9 C 6,5 C 1,9 km/h (1 Bft)
04.05.2013 06:30 6,5 C 96 % 1018,4 hPa 0,0 l/m 0,6 km/h (0 Bft) O-SO 112 5,9 C 6,5 C 0,0 km/h (0 Bft)
04.05.2013 06:35 6,6 C 96 % 1018,4 hPa 0,0 l/m 0,8 km/h (0 Bft) NO 45 6,0 C 6,6 C 2,1 km/h (1 Bft)
04.05.2013 06:40 6,8 C 96 % 1018,4 hPa 0,0 l/m 1,3 km/h (1 Bft) O-NO 67 6,2 C 6,8 C 2,7 km/h (1 Bft)
04.05.2013 06:45 7,1 C 96 % 1018,8 hPa 0,0 l/m 1,4 km/h (1 Bft) NO 45 6,5 C 7,0 C 0,0 km/h (0 Bft)
04.05.2013 06:50 7,8 C 96 % 1018,8 hPa 0,0 l/m 1,1 km/h (1 Bft) O 90 7,2 C 7,4 C 2,7 km/h (1 Bft)
04.05.2013 06:55 8,2 C 96 % 1018,8 hPa 0,0 l/m 1,0 km/h (0 Bft) SO 135 7,6 C 8,4 C 2,3 km/h (1 Bft)
04.05.2013 07:00 8,5 C 96 % 1018,8 hPa 0,0 l/m 1,3 km/h (1 Bft) O-NO 67 7,9 C 10,1 C 4,8 km/h (1 Bft)
04.05.2013 07:05 9,2 C 96 % 1018,8 hPa 0,0 l/m 1,6 km/h (1 Bft) NO 45 8,6 C 10,8 C 3,1 km/h (1 Bft)
04.05.2013 07:10 9,1 C 96 % 1018,8 hPa 0,0 l/m 1,8 km/h (1 Bft) N 360 8,5 C 11,7 C 0,0 km/h (0 Bft)
04.05.2013 07:15 8,7 C 96 % 1018,8 hPa 0,0 l/m 1,1 km/h (1 Bft) S-SO 157 8,1 C 12,7 C 0,0 km/h (0 Bft)
04.05.2013 07:20 8,7 C 96 % 1018,8 hPa 0,0 l/m 0,8 km/h (0 Bft) O 90 8,1 C 13,9 C 0,0 km/h (0 Bft)
04.05.2013 07:25 8,4 C 96 % 1018,9 hPa 0,0 l/m 0,6 km/h (0 Bft) O-NO 67 7,8 C 14,3 C 2,1 km/h (1 Bft)
04.05.2013 07:30 10,6 C 95 % 1018,9 hPa 0,0 l/m 0,5 km/h (0 Bft) O-NO 67 9,8 C 14,7 C 0,0 km/h (0 Bft)
04.05.2013 07:35 11,9 C 95 % 1018,9 hPa 0,0 l/m 0,5 km/h (0 Bft) O 90 11,1 C 15,0 C 2,1 km/h (1 Bft)
04.05.2013 07:40 12,4 C 94 % 1018,9 hPa 0,0 l/m 0,6 km/h (0 Bft) O 90 11,5 C 15,4 C 2,4 km/h (1 Bft)
04.05.2013 07:45 12,7 C 93 % 1019,0 hPa 0,0 l/m 0,8 km/h (0 Bft) O 90 11,6 C 15,6 C 1,6 km/h (1 Bft)
04.05.2013 07:50 13,5 C 88 % 1019,0 hPa 0,0 l/m 0,5 km/h (0 Bft) O-SO 112 11,6 C 16,0 C 0,0 km/h (0 Bft)
04.05.2013 07:55 14,2 C 86 % 1019,0 hPa 0,0 l/m 0,3 km/h (0 Bft) O-SO 112 11,9 C 16,4 C 0,0 km/h (0 Bft)
04.05.2013 08:00 14,7 C 79 % 1019,0 hPa 0,0 l/m 0,5 km/h (0 Bft) NO 45 11,1 C 17,0 C 1,8 km/h (1 Bft)
04.05.2013 08:05 15,0 C 79 % 1019,1 hPa 0,0 l/m 0,5 km/h (0 Bft) S 180 11,4 C 17,7 C 2,3 km/h (1 Bft)
04.05.2013 08:10 16,0 C 75 % 1019,1 hPa 0,0 l/m 1,3 km/h (1 Bft) S-SO 157 11,6 C 18,7 C 4,8 km/h (1 Bft)
04.05.2013 08:15 13,9 C 76 % 1019,1 hPa 0,0 l/m 2,3 km/h (1 Bft) W-SW 247 9,7 C 17,9 C 4,2 km/h (1 Bft)
04.05.2013 08:20 12,1 C 78 % 1019,1 hPa 0,0 l/m 2,9 km/h (1 Bft) NO 45 8,4 C 16,0 C 0,0 km/h (0 Bft)
04.05.2013 08:25 11,7 C 82 % 1019,4 hPa 0,0 l/m 1,8 km/h (1 Bft) O 90 8,7 C 15,3 C 2,1 km/h (1 Bft)
04.05.2013 08:30 11,8 C 85 % 1019,4 hPa 0,0 l/m 0,3 km/h (0 Bft) S 180 9,4 C 14,6 C 0,0 km/h (0 Bft)
04.05.2013 08:35 11,9 C 86 % 1019,4 hPa 0,0 l/m 0,2 km/h (0 Bft) S 180 9,6 C 14,6 C 0,0 km/h (0 Bft)
04.05.2013 08:40 11,6 C 86 % 1019,4 hPa 0,0 l/m 0,5 km/h (0 Bft) W-SW 247 9,3 C 14,3 C 0,0 km/h (0 Bft)
04.05.2013 08:45 11,4 C 87 % 1019,5 hPa 0,0 l/m 0,5 km/h (0 Bft) S 180 9,3 C 14,1 C 1,6 km/h (1 Bft)
04.05.2013 08:50 11,4 C 87 % 1019,5 hPa 0,0 l/m 0,5 km/h (0 Bft) S-SO 157 9,3 C 13,7 C 0,0 km/h (0 Bft)
04.05.2013 08:55 11,2 C 87 % 1019,5 hPa 0,0 l/m 0,6 km/h (0 Bft) O 90 9,1 C 13,7 C 0,0 km/h (0 Bft)
04.05.2013 09:00 11,2 C 88 % 1019,5 hPa 0,0 l/m 0,2 km/h (0 Bft) SO 135 9,3 C 13,6 C 0,0 km/h (0 Bft)
04.05.2013 09:05 10,9 C 87 % 1019,8 hPa 0,0 l/m 0,6 km/h (0 Bft) S 180 8,8 C 13,5 C 3,9 km/h (1 Bft)
04.05.2013 09:10 11,0 C 88 % 1019,8 hPa 0,0 l/m 1,0 km/h (0 Bft) S-SO 157 9,1 C 13,0 C 2,9 km/h (1 Bft)
04.05.2013 09:15 10,8 C 88 % 1019,8 hPa 0,0 l/m 1,3 km/h (1 Bft) S-SO 157 8,9 C 12,7 C 0,0 km/h (0 Bft)
04.05.2013 09:20 10,9 C 88 % 1019,8 hPa 0,0 l/m 0,8 km/h (0 Bft) O-SO 112 9,0 C 12,7 C 1,6 km/h (1 Bft)
04.05.2013 09:25 11,0 C 88 % 1020,1 hPa 0,0 l/m 0,6 km/h (0 Bft) O 90 9,1 C 12,7 C 0,0 km/h (0 Bft)
04.05.2013 09:30 10,9 C 87 % 1020,1 hPa 0,0 l/m 0,5 km/h (0 Bft) N 360 8,8 C 13,0 C 0,0 km/h (0 Bft)
04.05.2013 09:35 11,2 C 88 % 1020,1 hPa 0,0 l/m 0,0 km/h (0 Bft) N 360 9,3 C 13,1 C 0,0 km/h (0 Bft)
04.05.2013 09:40 11,6 C 89 % 1020,1 hPa 0,0 l/m 0,0 km/h (0 Bft) S 180 9,8 C 13,6 C 0,0 km/h (0 Bft)
04.05.2013 09:45 11,7 C 89 % 1020,0 hPa 0,0 l/m 0,2 km/h (0 Bft) W-SW 247 9,9 C 13,7 C 0,0 km/h (0 Bft)
04.05.2013 09:50 11,6 C 88 % 1020,0 hPa 0,0 l/m 0,5 km/h (0 Bft) N-NW 337 9,7 C 13,9 C 0,0 km/h (0 Bft)
04.05.2013 09:55 11,4 C 88 % 1020,0 hPa 0,0 l/m 0,6 km/h (0 Bft) O 90 9,5 C 13,9 C 0,0 km/h (0 Bft)
04.05.2013 10:00 11,4 C 88 % 1020,0 hPa 0,0 l/m 0,3 km/h (0 Bft) O-SO 112 9,5 C 13,9 C 0,0 km/h (0 Bft)
04.05.2013 10:05 11,6 C 88 % 1020,4 hPa 0,0 l/m 0,3 km/h (0 Bft) W-SW 247 9,7 C 13,8 C 0,0 km/h (0 Bft)
04.05.2013 10:10 11,6 C 88 % 1020,4 hPa 0,0 l/m 1,0 km/h (0 Bft) SW 225 9,7 C 13,6 C 3,9 km/h (1 Bft)
04.05.2013 10:15 11,5 C 88 % 1020,4 hPa 0,0 l/m 1,1 km/h (1 Bft) S 180 9,6 C 13,4 C 2,7 km/h (1 Bft)
04.05.2013 10:20 11,7 C 88 % 1020,4 hPa 0,0 l/m 1,1 km/h (1 Bft) S 180 9,8 C 13,4 C 0,0 km/h (0 Bft)
04.05.2013 10:25 11,7 C 88 % 1020,4 hPa 0,0 l/m 0,6 km/h (0 Bft) S 180 9,8 C 13,6 C 0,0 km/h (0 Bft)
04.05.2013 10:30 11,8 C 88 % 1020,4 hPa 0,0 l/m 0,6 km/h (0 Bft) W 270 9,9 C 13,8 C 2,6 km/h (1 Bft)
04.05.2013 10:35 12,0 C 88 % 1020,4 hPa 0,0 l/m 1,1 km/h (1 Bft) W-SW 247 10,1 C 13,8 C 0,0 km/h (0 Bft)
04.05.2013 10:40 12,2 C 87 % 1020,4 hPa 0,0 l/m 1,4 km/h (1 Bft) W-SW 247 10,1 C 14,0 C 2,6 km/h (1 Bft)
04.05.2013 10:45 12,2 C 87 % 1020,5 hPa 0,0 l/m 1,3 km/h (1 Bft) SO 135 10,1 C 14,2 C 0,0 km/h (0 Bft)
04.05.2013 10:50 12,0 C 84 % 1020,5 hPa 0,0 l/m 1,8 km/h (1 Bft) NO 45 9,4 C 14,3 C 2,1 km/h (1 Bft)
04.05.2013 10:55 12,0 C 85 % 1020,5 hPa 0,0 l/m 1,1 km/h (1 Bft) S-SW 202 9,6 C 14,4 C 2,3 km/h (1 Bft)
04.05.2013 11:00 12,2 C 85 % 1020,5 hPa 0,0 l/m 1,8 km/h (1 Bft) S 180 9,8 C 14,4 C 3,5 km/h (1 Bft)
04.05.2013 11:05 12,4 C 86 % 1020,8 hPa 0,0 l/m 2,4 km/h (1 Bft) S-SW 202 10,1 C 14,3 C 4,3 km/h (1 Bft)
04.05.2013 11:10 12,4 C 86 % 1020,8 hPa 0,0 l/m 2,3 km/h (1 Bft) S 180 10,1 C 14,3 C 4,3 km/h (1 Bft)
04.05.2013 11:15 12,5 C 86 % 1020,8 hPa 0,0 l/m 2,3 km/h (1 Bft) W-SW 247 10,2 C 14,2 C 1,9 km/h (1 Bft)
04.05.2013 11:20 12,7 C 85 % 1020,8 hPa 0,0 l/m 2,1 km/h (1 Bft) SO 135 10,2 C 14,4 C 0,0 km/h (0 Bft)
04.05.2013 11:25 12,8 C 86 % 1020,7 hPa 0,0 l/m 1,9 km/h (1 Bft) W-SW 247 10,5 C 14,6 C 4,2 km/h (1 Bft)
04.05.2013 11:30 12,8 C 84 % 1020,7 hPa 0,0 l/m 2,9 km/h (1 Bft) SW 225 10,2 C 14,7 C 3,9 km/h (1 Bft)
04.05.2013 11:35 13,0 C 83 % 1020,7 hPa 0,0 l/m 3,4 km/h (1 Bft) S 180 10,2 C 14,9 C 3,5 km/h (1 Bft)
04.05.2013 11:40 13,2 C 81 % 1020,7 hPa 0,0 l/m 3,4 km/h (1 Bft) W-SW 247 10,0 C 15,1 C 5,3 km/h (1 Bft)
04.05.2013 11:45 13,8 C 81 % 1020,8 hPa 0,0 l/m 3,5 km/h (1 Bft) W-SW 247 10,6 C 15,3 C 3,9 km/h (1 Bft)
04.05.2013 11:50 14,2 C 75 % 1020,8 hPa 0,0 l/m 4,2 km/h (1 Bft) SW 225 9,8 C 16,3 C 2,7 km/h (1 Bft)
04.05.2013 11:55 14,2 C 77 % 1020,8 hPa 0,0 l/m 4,5 km/h (1 Bft) S 180 10,2 C 16,4 C 6,8 km/h (2 Bft)
04.05.2013 12:00 14,1 C 76 % 1020,8 hPa 0,0 l/m 3,9 km/h (1 Bft) S 180 9,9 C 16,6 C 6,9 km/h (2 Bft)
04.05.2013 12:05 13,9 C 78 % 1021,1 hPa 0,0 l/m 4,2 km/h (1 Bft) W-SW 247 10,1 C 16,4 C 9,5 km/h (2 Bft)
04.05.2013 12:10 14,0 C 79 % 1021,1 hPa 0,0 l/m 3,5 km/h (1 Bft) W-SW 247 10,4 C 16,3 C 5,8 km/h (2 Bft)
04.05.2013 12:15 14,0 C 76 % 1021,1 hPa 0,0 l/m 3,4 km/h (1 Bft) S-SO 157 9,8 C 16,0 C 3,2 km/h (1 Bft)
04.05.2013 12:20 13,9 C 74 % 1021,1 hPa 0,0 l/m 4,7 km/h (1 Bft) S-SW 202 9,3 C 15,9 C 4,3 km/h (1 Bft)
04.05.2013 12:25 14,3 C 75 % 1020,9 hPa 0,0 l/m 4,0 km/h (1 Bft) S-SW 202 9,9 C 15,9 C 4,2 km/h (1 Bft)
04.05.2013 12:30 14,1 C 74 % 1020,9 hPa 0,0 l/m 3,5 km/h (1 Bft) W-SW 247 9,5 C 16,1 C 5,5 km/h (1 Bft)
04.05.2013 12:35 14,1 C 73 % 1020,9 hPa 0,0 l/m 3,5 km/h (1 Bft) S-SW 202 9,3 C 16,0 C 4,7 km/h (1 Bft)
04.05.2013 12:40 13,9 C 71 % 1020,9 hPa 0,0 l/m 3,9 km/h (1 Bft) S 180 8,7 C 15,8 C 2,9 km/h (1 Bft)
04.05.2013 12:45 14,1 C 71 % 1020,9 hPa 0,0 l/m 3,9 km/h (1 Bft) W-SW 247 8,9 C 15,8 C 3,7 km/h (1 Bft)
04.05.2013 12:50 14,2 C 72 % 1020,9 hPa 0,0 l/m 3,4 km/h (1 Bft) W-NW 292 9,2 C 16,0 C 1,9 km/h (1 Bft)
04.05.2013 12:55 14,0 C 71 % 1020,9 hPa 0,0 l/m 3,2 km/h (1 Bft) S 180 8,8 C 16,0 C 4,8 km/h (1 Bft)
04.05.2013 13:00 14,1 C 71 % 1020,9 hPa 0,0 l/m 2,4 km/h (1 Bft) W-SW 247 8,9 C 15,8 C 3,5 km/h (1 Bft)
04.05.2013 13:05 14,1 C 72 % 1020,8 hPa 0,0 l/m 2,4 km/h (1 Bft) SO 135 9,1 C 15,8 C 1,9 km/h (1 Bft)
04.05.2013 13:10 14,0 C 72 % 1020,8 hPa 0,0 l/m 1,3 km/h (1 Bft) S-SW 202 9,0 C 15,8 C 2,4 km/h (1 Bft)
04.05.2013 13:15 13,7 C 68 % 1020,8 hPa 0,0 l/m 2,1 km/h (1 Bft) SW 225 7,9 C 15,6 C 7,2 km/h (2 Bft)
04.05.2013 13:20 13,4 C 63 % 1020,8 hPa 0,0 l/m 4,3 km/h (1 Bft) S-SW 202 6,5 C 15,0 C 7,4 km/h (2 Bft)
04.05.2013 13:25 13,4 C 64 % 1020,8 hPa 0,0 l/m 5,5 km/h (1 Bft) S 180 6,7 C 14,9 C 7,9 km/h (2 Bft)
04.05.2013 13:30 13,4 C 66 % 1020,8 hPa 0,0 l/m 5,0 km/h (1 Bft) S 180 7,2 C 14,9 C 3,4 km/h (1 Bft)
04.05.2013 13:35 13,7 C 65 % 1020,8 hPa 0,0 l/m 3,9 km/h (1 Bft) S-SO 157 7,2 C 15,0 C 10,5 km/h (2 Bft)
04.05.2013 13:40 14,1 C 65 % 1020,8 hPa 0,0 l/m 3,7 km/h (1 Bft) S-SW 202 7,6 C 15,4 C 5,8 km/h (2 Bft)
04.05.2013 13:45 13,8 C 61 % 1021,1 hPa 0,0 l/m 4,7 km/h (1 Bft) S-SO 157 6,4 C 15,4 C 6,9 km/h (2 Bft)
04.05.2013 13:50 13,7 C 63 % 1021,1 hPa 0,0 l/m 5,6 km/h (1 Bft) S-SW 202 6,8 C 15,2 C 7,9 km/h (2 Bft)
04.05.2013 13:55 13,9 C 62 % 1021,1 hPa 0,0 l/m 5,6 km/h (1 Bft) S 180 6,7 C 15,2 C 10,6 km/h (2 Bft)
04.05.2013 14:00 14,2 C 63 % 1021,1 hPa 0,0 l/m 5,8 km/h (2 Bft) O-SO 112 7,3 C 15,5 C 5,6 km/h (1 Bft)
04.05.2013 14:05 14,7 C 62 % 1020,8 hPa 0,0 l/m 5,1 km/h (1 Bft) S-SW 202 7,5 C 15,7 C 5,5 km/h (1 Bft)
04.05.2013 14:10 14,9 C 60 % 1020,8 hPa 0,0 l/m 3,4 km/h (1 Bft) S 180 7,2 C 16,5 C 2,3 km/h (1 Bft)
04.05.2013 14:15 15,0 C 61 % 1020,8 hPa 0,0 l/m 2,9 km/h (1 Bft) S 180 7,5 C 17,0 C 4,8 km/h (1 Bft)
04.05.2013 14:20 15,1 C 61 % 1020,8 hPa 0,0 l/m 3,5 km/h (1 Bft) SO 135 7,6 C 17,3 C 4,2 km/h (1 Bft)
04.05.2013 14:25 14,7 C 59 % 1020,9 hPa 0,0 l/m 2,7 km/h (1 Bft) W 270 6,8 C 17,3 C 0,0 km/h (0 Bft)
04.05.2013 14:30 14,9 C 60 % 1020,9 hPa 0,0 l/m 1,8 km/h (1 Bft) W-SW 247 7,2 C 17,6 C 2,9 km/h (1 Bft)
04.05.2013 14:35 14,8 C 61 % 1020,9 hPa 0,0 l/m 2,1 km/h (1 Bft) W-SW 247 7,4 C 17,5 C 6,6 km/h (2 Bft)
04.05.2013 14:40 14,6 C 59 % 1020,9 hPa 0,0 l/m 4,8 km/h (1 Bft) W-SW 247 6,7 C 16,7 C 11,4 km/h (2 Bft)
04.05.2013 14:45 14,6 C 59 % 1020,8 hPa 0,0 l/m 6,3 km/h (2 Bft) S-SW 202 6,7 C 16,1 C 12,6 km/h (3 Bft)
04.05.2013 14:50 14,8 C 60 % 1020,8 hPa 0,0 l/m 5,5 km/h (1 Bft) S 180 7,1 C 15,9 C 8,4 km/h (2 Bft)
04.05.2013 14:55 14,7 C 60 % 1020,8 hPa 0,0 l/m 5,3 km/h (1 Bft) S-SO 157 7,0 C 15,9 C 4,2 km/h (1 Bft)
04.05.2013 15:00 14,8 C 60 % 1020,8 hPa 0,0 l/m 5,0 km/h (1 Bft) S-SO 157 7,1 C 15,9 C 2,9 km/h (1 Bft)
04.05.2013 15:05 15,1 C 60 % 1020,8 hPa 0,0 l/m 4,2 km/h (1 Bft) S-SO 157 7,4 C 16,1 C 2,9 km/h (1 Bft)
04.05.2013 15:10 14,7 C 59 % 1020,8 hPa 0,0 l/m 3,9 km/h (1 Bft) S-SO 157 6,8 C 16,3 C 2,3 km/h (1 Bft)
04.05.2013 15:15 14,7 C 60 % 1020,8 hPa 0,0 l/m 3,4 km/h (1 Bft) S 180 7,0 C 16,0 C 5,1 km/h (1 Bft)
04.05.2013 15:20 14,0 C 59 % 1020,8 hPa 0,0 l/m 4,7 km/h (1 Bft) S 180 6,1 C 15,2 C 3,9 km/h (1 Bft)
04.05.2013 15:25 13,9 C 59 % 1020,9 hPa 0,0 l/m 5,5 km/h (1 Bft) W-SW 247 6,0 C 14,9 C 5,3 km/h (1 Bft)
04.05.2013 15:30 13,7 C 62 % 1020,9 hPa 0,0 l/m 5,0 km/h (1 Bft) SW 225 6,6 C 14,5 C 11,3 km/h (2 Bft)
04.05.2013 15:35 13,6 C 63 % 1020,9 hPa 0,0 l/m 5,6 km/h (1 Bft) S-SW 202 6,7 C 14,3 C 5,8 km/h (2 Bft)
04.05.2013 15:40 13,8 C 64 % 1020,9 hPa 0,0 l/m 6,1 km/h (2 Bft) S 180 7,1 C 14,3 C 6,4 km/h (2 Bft)
04.05.2013 15:45 14,3 C 62 % 1020,8 hPa 0,0 l/m 5,8 km/h (2 Bft) S 180 7,1 C 14,5 C 10,1 km/h (2 Bft)
04.05.2013 15:50 15,3 C 59 % 1020,8 hPa 0,0 l/m 5,5 km/h (1 Bft) S-SW 202 7,3 C 15,4 C 5,6 km/h (1 Bft)
04.05.2013 15:55 14,7 C 59 % 1020,8 hPa 0,0 l/m 6,3 km/h (2 Bft) S 180 6,8 C 15,4 C 10,1 km/h (2 Bft)
04.05.2013 16:00 14,1 C 63 % 1020,8 hPa 0,0 l/m 6,6 km/h (2 Bft) S-SW 202 7,2 C 14,9 C 7,4 km/h (2 Bft)
04.05.2013 16:05 14,1 C 63 % 1020,8 hPa 0,0 l/m 6,1 km/h (2 Bft) S-SW 202 7,2 C 14,8 C 13,4 km/h (3 Bft)
04.05.2013 16:10 13,8 C 63 % 1020,8 hPa 0,0 l/m 6,3 km/h (2 Bft) S-SW 202 6,9 C 14,5 C 10,5 km/h (2 Bft)
04.05.2013 16:15 13,5 C 63 % 1020,8 hPa 0,0 l/m 6,8 km/h (2 Bft) SW 225 6,6 C 13,8 C 7,1 km/h (2 Bft)
04.05.2013 16:20 13,2 C 66 % 1020,8 hPa 0,0 l/m 6,8 km/h (2 Bft) SO 135 7,0 C 13,4 C 7,9 km/h (2 Bft)
04.05.2013 16:25 12,9 C 68 % 1020,9 hPa 0,0 l/m 6,4 km/h (2 Bft) S 180 7,1 C 13,2 C 14,5 km/h (3 Bft)
04.05.2013 16:30 12,6 C 69 % 1020,9 hPa 0,0 l/m 7,1 km/h (2 Bft) S-SO 157 7,1 C 12,3 C 8,7 km/h (2 Bft)
04.05.2013 16:35 12,3 C 69 % 1020,9 hPa 0,7 l/m 6,1 km/h (2 Bft) O-SO 112 6,8 C 12,6 C 4,0 km/h (1 Bft)
04.05.2013 16:40 12,2 C 71 % 1020,9 hPa 0,0 l/m 4,7 km/h (1 Bft) O-SO 112 7,1 C 12,4 C 2,9 km/h (1 Bft)
04.05.2013 16:45 12,2 C 72 % 1021,1 hPa 0,0 l/m 3,5 km/h (1 Bft) SO 135 7,3 C 12,4 C 3,9 km/h (1 Bft)
04.05.2013 16:50 12,2 C 72 % 1021,1 hPa 0,0 l/m 2,7 km/h (1 Bft) S 180 7,3 C 12,5 C 6,3 km/h (2 Bft)
04.05.2013 16:55 12,2 C 72 % 1021,1 hPa 0,0 l/m 2,7 km/h (1 Bft) O-SO 112 7,3 C 12,5 C 2,9 km/h (1 Bft)
04.05.2013 17:00 12,3 C 73 % 1021,1 hPa 0,0 l/m 2,3 km/h (1 Bft) S 180 7,6 C 12,7 C 0,0 km/h (0 Bft)
04.05.2013 17:05 12,4 C 73 % 1021,0 hPa 0,0 l/m 1,9 km/h (1 Bft) S 180 7,7 C 12,8 C 1,8 km/h (1 Bft)
04.05.2013 17:10 12,5 C 72 % 1021,0 hPa 0,0 l/m 2,4 km/h (1 Bft) O-SO 112 7,6 C 13,0 C 2,6 km/h (1 Bft)
04.05.2013 17:15 12,5 C 72 % 1021,0 hPa 0,0 l/m 1,8 km/h (1 Bft) SO 135 7,6 C 13,2 C 0,0 km/h (0 Bft)
04.05.2013 17:20 12,6 C 72 % 1021,0 hPa 0,0 l/m 1,8 km/h (1 Bft) SO 135 7,7 C 13,2 C 0,0 km/h (0 Bft)
04.05.2013 17:25 12,7 C 72 % 1021,0 hPa 0,0 l/m 2,6 km/h (1 Bft) S 180 7,8 C 13,3 C 6,1 km/h (2 Bft)
04.05.2013 17:30 12,6 C 71 % 1021,0 hPa 0,0 l/m 3,4 km/h (1 Bft) O 90 7,5 C 13,2 C 1,8 km/h (1 Bft)
04.05.2013 17:35 12,3 C 72 % 1021,0 hPa 0,0 l/m 2,7 km/h (1 Bft) S-SO 157 7,4 C 13,1 C 2,6 km/h (1 Bft)
04.05.2013 17:40 12,3 C 72 % 1021,0 hPa 0,0 l/m 1,9 km/h (1 Bft) SO 135 7,4 C 13,0 C 2,1 km/h (1 Bft)
04.05.2013 17:45 12,5 C 73 % 1021,2 hPa 0,0 l/m 2,4 km/h (1 Bft) S 180 7,8 C 13,0 C 4,2 km/h (1 Bft)
04.05.2013 17:50 12,6 C 73 % 1021,2 hPa 0,0 l/m 3,4 km/h (1 Bft) S-SO 157 7,9 C 13,0 C 5,8 km/h (2 Bft)
04.05.2013 17:55 12,6 C 72 % 1021,2 hPa 0,0 l/m 3,4 km/h (1 Bft) SO 135 7,7 C 13,1 C 6,3 km/h (2 Bft)
04.05.2013 18:00 12,7 C 71 % 1021,2 hPa 0,0 l/m 3,9 km/h (1 Bft) SW 225 7,6 C 13,1 C 3,4 km/h (1 Bft)
04.05.2013 18:05 12,7 C 71 % 1021,5 hPa 0,0 l/m 3,5 km/h (1 Bft) SO 135 7,6 C 13,1 C 3,9 km/h (1 Bft)
04.05.2013 18:10 12,7 C 72 % 1021,5 hPa 0,0 l/m 2,6 km/h (1 Bft) S-SO 157 7,8 C 13,2 C 0,0 km/h (0 Bft)
04.05.2013 18:15 12,7 C 73 % 1021,5 hPa 0,0 l/m 1,9 km/h (1 Bft) S 180 8,0 C 13,2 C 0,0 km/h (0 Bft)
04.05.2013 18:20 12,5 C 73 % 1021,5 hPa 0,0 l/m 1,8 km/h (1 Bft) S-SW 202 7,8 C 13,0 C 5,0 km/h (1 Bft)
04.05.2013 18:25 12,4 C 73 % 1021,6 hPa 0,0 l/m 2,7 km/h (1 Bft) O-SO 112 7,7 C 12,8 C 2,6 km/h (1 Bft)
04.05.2013 18:30 12,2 C 69 % 1021,6 hPa 0,0 l/m 5,8 km/h (2 Bft) S-SW 202 6,7 C 12,4 C 10,5 km/h (2 Bft)
04.05.2013 18:35 12,1 C 69 % 1021,6 hPa 0,0 l/m 6,9 km/h (2 Bft) S-SW 202 6,6 C 11,7 C 11,1 km/h (2 Bft)
04.05.2013 18:40 12,2 C 71 % 1021,6 hPa 0,0 l/m 6,4 km/h (2 Bft) S 180 7,1 C 11,9 C 8,9 km/h (2 Bft)
04.05.2013 18:45 12,2 C 72 % 1021,8 hPa 0,0 l/m 5,6 km/h (1 Bft) S-SO 157 7,3 C 12,2 C 3,1 km/h (1 Bft)
04.05.2013 18:50 12,2 C 72 % 1021,8 hPa 0,0 l/m 4,2 km/h (1 Bft) S-SO 157 7,3 C 12,3 C 1,6 km/h (1 Bft)
04.05.2013 18:55 12,3 C 73 % 1021,8 hPa 0,0 l/m 3,1 km/h (1 Bft) O 90 7,6 C 12,4 C 0,0 km/h (0 Bft)
04.05.2013 19:00 12,1 C 73 % 1021,8 hPa 0,0 l/m 3,4 km/h (1 Bft) S 180 7,4 C 12,4 C 10,3 km/h (2 Bft)
04.05.2013 19:05 12,0 C 73 % 1021,6 hPa 0,0 l/m 4,5 km/h (1 Bft) S 180 7,3 C 12,2 C 9,8 km/h (2 Bft)
04.05.2013 19:10 11,8 C 73 % 1021,6 hPa 0,0 l/m 7,2 km/h (2 Bft) S 180 7,1 C 10,6 C 10,3 km/h (2 Bft)
04.05.2013 19:15 11,7 C 74 % 1021,6 hPa 0,0 l/m 7,6 km/h (2 Bft) S 180 7,2 C 10,3 C 4,2 km/h (1 Bft)
04.05.2013 19:20 11,8 C 75 % 1021,6 hPa 0,0 l/m 5,8 km/h (2 Bft) S-SW 202 7,5 C 11,7 C 3,1 km/h (1 Bft)
04.05.2013 19:25 11,9 C 74 % 1021,7 hPa 0,0 l/m 4,8 km/h (1 Bft) S 180 7,4 C 12,3 C 6,3 km/h (2 Bft)
04.05.2013 19:30 11,8 C 74 % 1021,7 hPa 0,0 l/m 3,2 km/h (1 Bft) W-SW 247 7,3 C 12,3 C 2,3 km/h (1 Bft)
04.05.2013 19:35 11,6 C 75 % 1021,7 hPa 0,0 l/m 2,7 km/h (1 Bft) W-SW 247 7,3 C 12,0 C 4,5 km/h (1 Bft)
04.05.2013 19:40 11,4 C 75 % 1021,7 hPa 0,0 l/m 3,5 km/h (1 Bft) S 180 7,1 C 11,8 C 4,7 km/h (1 Bft)
04.05.2013 19:45 11,2 C 75 % 1021,9 hPa 0,0 l/m 4,8 km/h (1 Bft) S 180 6,9 C 11,6 C 5,6 km/h (1 Bft)
04.05.2013 19:50 11,0 C 75 % 1021,9 hPa 0,0 l/m 5,6 km/h (1 Bft) S 180 6,7 C 11,0 C 6,8 km/h (2 Bft)
04.05.2013 19:55 10,9 C 76 % 1021,9 hPa 0,0 l/m 5,8 km/h (2 Bft) S-SW 202 6,8 C 10,9 C 6,4 km/h (2 Bft)
04.05.2013 20:00 10,7 C 75 % 1021,9 hPa 0,0 l/m 6,1 km/h (2 Bft) S-SW 202 6,5 C 10,6 C 6,4 km/h (2 Bft)
04.05.2013 20:05 10,6 C 76 % 1022,2 hPa 0,0 l/m 6,0 km/h (2 Bft) S 180 6,5 C 10,5 C 4,5 km/h (1 Bft)
04.05.2013 20:10 10,4 C 77 % 1022,2 hPa 0,0 l/m 6,6 km/h (2 Bft) S-SW 202 6,5 C 9,9 C 9,5 km/h (2 Bft)
04.05.2013 20:15 10,3 C 77 % 1022,2 hPa 0,0 l/m 6,0 km/h (2 Bft) S-SO 157 6,4 C 9,9 C 7,4 km/h (2 Bft)
04.05.2013 20:20 10,2 C 77 % 1022,2 hPa 0,0 l/m 4,2 km/h (1 Bft) O-SO 112 6,4 C 10,3 C 3,1 km/h (1 Bft)
04.05.2013 20:25 10,1 C 78 % 1022,4 hPa 0,0 l/m 3,5 km/h (1 Bft) O-SO 112 6,4 C 10,2 C 2,6 km/h (1 Bft)
04.05.2013 20:30 10,0 C 78 % 1022,4 hPa 0,0 l/m 2,1 km/h (1 Bft) S 180 6,3 C 10,1 C 1,8 km/h (1 Bft)
04.05.2013 20:35 9,9 C 79 % 1022,4 hPa 0,0 l/m 1,8 km/h (1 Bft) S-SO 157 6,4 C 9,9 C 3,2 km/h (1 Bft)
04.05.2013 20:40 9,9 C 79 % 1022,4 hPa 0,0 l/m 2,4 km/h (1 Bft) S 180 6,4 C 9,9 C 1,8 km/h (1 Bft)
04.05.2013 20:45 9,8 C 80 % 1022,1 hPa 0,0 l/m 2,7 km/h (1 Bft) S-SO 157 6,5 C 9,8 C 3,7 km/h (1 Bft)
04.05.2013 20:50 9,8 C 81 % 1022,1 hPa 0,0 l/m 2,9 km/h (1 Bft) S 180 6,7 C 9,7 C 2,4 km/h (1 Bft)
04.05.2013 20:55 9,6 C 81 % 1022,1 hPa 0,0 l/m 3,2 km/h (1 Bft) O-SO 112 6,5 C 9,5 C 5,0 km/h (1 Bft)
04.05.2013 21:00 9,4 C 83 % 1022,1 hPa 0,0 l/m 3,4 km/h (1 Bft) S-SW 202 6,7 C 9,2 C 5,3 km/h (1 Bft)
04.05.2013 21:05 9,3 C 83 % 1022,5 hPa 0,0 l/m 3,1 km/h (1 Bft) O-SO 112 6,6 C 9,0 C 0,0 km/h (0 Bft)
04.05.2013 21:10 9,3 C 84 % 1022,5 hPa 0,0 l/m 3,1 km/h (1 Bft) O-SO 112 6,7 C 9,0 C 3,1 km/h (1 Bft)
04.05.2013 21:15 9,3 C 85 % 1022,5 hPa 0,0 l/m 2,9 km/h (1 Bft) O 90 6,9 C 9,0 C 3,1 km/h (1 Bft)
04.05.2013 21:20 9,4 C 85 % 1022,5 hPa 0,0 l/m 3,1 km/h (1 Bft) SO 135 7,0 C 9,0 C 2,6 km/h (1 Bft)
04.05.2013 21:25 9,4 C 85 % 1022,5 hPa 0,0 l/m 2,7 km/h (1 Bft) O 90 7,0 C 9,0 C 0,0 km/h (0 Bft)
04.05.2013 21:30 9,3 C 85 % 1022,5 hPa 0,0 l/m 2,7 km/h (1 Bft) S-SO 157 6,9 C 9,0 C 3,2 km/h (1 Bft)
04.05.2013 21:35 9,3 C 85 % 1022,5 hPa 0,0 l/m 2,9 km/h (1 Bft) SO 135 6,9 C 9,1 C 3,4 km/h (1 Bft)
04.05.2013 21:40 9,3 C 85 % 1022,5 hPa 0,0 l/m 2,6 km/h (1 Bft) S-SO 157 6,9 C 9,1 C 1,6 km/h (1 Bft)
04.05.2013 21:45 9,2 C 85 % 1022,8 hPa 0,0 l/m 2,4 km/h (1 Bft) S-SO 157 6,8 C 9,1 C 2,6 km/h (1 Bft)
04.05.2013 21:50 9,2 C 85 % 1022,8 hPa 0,0 l/m 2,6 km/h (1 Bft) SO 135 6,8 C 9,1 C 1,9 km/h (1 Bft)
04.05.2013 21:55 9,2 C 85 % 1022,8 hPa 0,0 l/m 2,4 km/h (1 Bft) S 180 6,8 C 9,1 C 3,5 km/h (1 Bft)
04.05.2013 22:00 9,1 C 85 % 1022,8 hPa 0,0 l/m 1,8 km/h (1 Bft) S 180 6,7 C 9,0 C 1,8 km/h (1 Bft)
04.05.2013 22:05 9,0 C 85 % 1022,8 hPa 0,0 l/m 1,8 km/h (1 Bft) SO 135 6,6 C 9,0 C 1,8 km/h (1 Bft)
04.05.2013 22:10 9,0 C 85 % 1022,8 hPa 0,0 l/m 2,1 km/h (1 Bft) S 180 6,6 C 8,9 C 4,7 km/h (1 Bft)
04.05.2013 22:15 8,9 C 85 % 1022,8 hPa 0,0 l/m 1,9 km/h (1 Bft) O-SO 112 6,5 C 8,8 C 2,3 km/h (1 Bft)
04.05.2013 22:20 8,8 C 85 % 1022,8 hPa 0,0 l/m 2,1 km/h (1 Bft) SO 135 6,4 C 8,7 C 4,0 km/h (1 Bft)
04.05.2013 22:25 8,7 C 85 % 1022,9 hPa 0,0 l/m 2,3 km/h (1 Bft) SO 135 6,3 C 8,7 C 4,2 km/h (1 Bft)
04.05.2013 22:30 8,7 C 86 % 1022,9 hPa 0,0 l/m 2,9 km/h (1 Bft) O-SO 112 6,5 C 8,6 C 2,7 km/h (1 Bft)
04.05.2013 22:35 8,6 C 86 % 1022,9 hPa 0,0 l/m 2,9 km/h (1 Bft) S-SO 157 6,4 C 8,6 C 6,3 km/h (2 Bft)
04.05.2013 22:40 8,8 C 86 % 1022,9 hPa 0,0 l/m 2,6 km/h (1 Bft) S-SO 157 6,6 C 8,6 C 2,6 km/h (1 Bft)
04.05.2013 22:45 9,1 C 86 % 1022,9 hPa 0,0 l/m 3,1 km/h (1 Bft) NW 315 6,9 C 8,8 C 3,2 km/h (1 Bft)
04.05.2013 22:50 9,3 C 86 % 1022,9 hPa 0,0 l/m 3,2 km/h (1 Bft) S-SO 157 7,1 C 9,0 C 5,3 km/h (1 Bft)
04.05.2013 22:55 9,4 C 86 % 1022,9 hPa 0,0 l/m 3,2 km/h (1 Bft) S 180 7,2 C 9,1 C 2,6 km/h (1 Bft)
04.05.2013 23:00 9,3 C 85 % 1022,9 hPa 0,0 l/m 3,2 km/h (1 Bft) S-SO 157 6,9 C 9,3 C 3,5 km/h (1 Bft)
04.05.2013 23:05 9,1 C 85 % 1023,0 hPa 0,0 l/m 2,7 km/h (1 Bft) S-SO 157 6,7 C 9,3 C 4,3 km/h (1 Bft)
04.05.2013 23:10 9,1 C 86 % 1023,0 hPa 0,0 l/m 2,3 km/h (1 Bft) O 90 6,9 C 9,2 C 4,3 km/h (1 Bft)
04.05.2013 23:15 9,1 C 86 % 1023,0 hPa 0,0 l/m 2,7 km/h (1 Bft) S 180 6,9 C 9,2 C 4,5 km/h (1 Bft)
04.05.2013 23:20 9,1 C 86 % 1023,0 hPa 0,0 l/m 2,3 km/h (1 Bft) O-SO 112 6,9 C 9,2 C 0,0 km/h (0 Bft)
04.05.2013 23:25 9,0 C 86 % 1023,1 hPa 0,0 l/m 1,8 km/h (1 Bft) S 180 6,8 C 9,2 C 4,0 km/h (1 Bft)
04.05.2013 23:30 8,9 C 86 % 1023,1 hPa 0,0 l/m 0,8 km/h (0 Bft) O-SO 112 6,7 C 9,1 C 0,0 km/h (0 Bft)
04.05.2013 23:35 8,8 C 86 % 1023,1 hPa 0,0 l/m 0,3 km/h (0 Bft) NW 315 6,6 C 9,0 C 0,0 km/h (0 Bft)
04.05.2013 23:40 8,8 C 86 % 1023,1 hPa 0,0 l/m 0,2 km/h (0 Bft) O 90 6,6 C 9,0 C 0,0 km/h (0 Bft)
04.05.2013 23:45 8,8 C 86 % 1023,2 hPa 0,0 l/m 0,2 km/h (0 Bft) NO 45 6,6 C 8,8 C 0,0 km/h (0 Bft)
04.05.2013 23:50 8,8 C 86 % 1023,2 hPa 0,0 l/m 0,2 km/h (0 Bft) S-SO 157 6,6 C 8,7 C 0,0 km/h (0 Bft)
04.05.2013 23:55 8,9 C 86 % 1023,2 hPa 0,0 l/m 0,5 km/h (0 Bft) O-NO 67 6,7 C 8,8 C 2,9 km/h (1 Bft)
_ Min-Zeit 02:55 15:55 04:20 - 09:40 - - 02:55 02:55 23:50
Minimum _ 5,8 C 59 % 1017,4 hPa - 0,0 km/h (0 Bft) - - 5,4 C 5,6 C 0,0 km/h (0 Bft)
_ Max-Zeit 08:10 02:55 23:55 16:35 19:15 - - 07:55 08:10 16:25
Maximum _ 16,0 C 97 % 1023,2 hPa 0,7 l/m 7,6 km/h
S (2 Bft)
- - 11,9 C 18,7 C 14,5 km/h
S (3 Bft)
Durchschnitt _ 10,4 C 83 % 1020,1 hPa #0,7 l/m 2,5 km/h (1 Bft) S - 7,4 C 11,2 C 3,2 km/h (1 Bft)